Regional Weather Roundup
Issued by NWS State College, PA

Home | Current Version | Previous Version | Text Only | Print | Product List | Glossary Off
Versions: 1 2 3 4 5 6 7 8 9 10 11 12 13 14 15 16 17 18 19 20 21 22 23 24 25 26 27 28 29 30 31 32 33 34 35 36 37 38 39 40 41 42 43 44 45 46 47 48 49 50

000
ASUS41 KCTP 272310
RWRCTP

REGIONAL WEATHER ROUNDUP
NATIONAL WEATHER SERVICE STATE COLLEGE PA
700 PM EDT SUN JUL 27 2014

Note: "fair" indicates few or no clouds below 12,000 feet with no
significant weather and/or obstructions to visibility.

* = STATION THAT DOES NOT REPORT PRECIPITATION /E.G. RAIN...SNOW...ETC/
    THUNDER OR FOG.

PAZ002>004-007>009-013>016-020>023-029>032-280000-
WESTERN PENNSYLVANIA

CITY           SKY/WX    TMP DP  RH WIND       PRES   REMARKS
ERIE           LGT RAIN  72  63  73 S20G30    29.67R
MEADVILLE      LGT RAIN  62  59  90 VRB3      29.72R
FRANKLIN*      CLOUDY    61  57  88 S8        29.76F THUNDER
NEW CASTLE       N/A     69  61  76 NE13      29.72R
BEAVER COUNTY  NOT AVBL
BUTLER*        CLOUDY    72  66  83 N6        29.74R
PITTSBURGH INT CLOUDY    73  66  78 SW10      29.69R
PITTSBURGH     CLOUDY    71  68  90 S7        29.69R FOG
INDIANA*       PTSUNNY   70  64  83 CALM      29.75S
LATROBE        NOT AVBL
WASHINGTON CO* CLOUDY    72  68  88 SW5       29.71S THUNDER
$$

PAZ004>006-010>012-017>019-024>028-033>037-041-042-045-046-049>053-280000-
CENTRAL PENNSYLVANIA

CITY           SKY/WX    TMP DP  RH WIND       PRES   REMARKS
BRADFORD       LGT RAIN  73  62  68 CALM      29.73F
DUBOIS         CLOUDY    72  69  90 CALM      29.71S FOG
CLEARFIELD     TSTM      72  68  87 SW10G17   29.71F
JOHNSTOWN      CLOUDY    69  66  90 SW7       29.75F
ALTOONA        TSTM      68  64  87 NE6       29.74R
STATE COLLEGE  PTSUNNY   77  66  69 NW5       29.67F
WILLIAMSPORT   CLOUDY    82  64  54 S5        29.64F
SELINSGROVE    CLOUDY    79  73  82 CALM      29.65F
FT INDIANTOWN  TSTM      77  74  90 N7        29.68R
CAPITAL CITY   TSTM      66  65  96 W24G46    29.74R VSB 3/4
HARRISBURG     TSTM      70  66  87 W32G41    29.70R FOG
YORK           CLOUDY    82  70  66 NW7       29.70R
$$

PAZ038>040-043-044-047-048-054-055-060>062-067>071-280000-
EASTERN PENNSYLVANIA

CITY           SKY/WX    TMP DP  RH WIND       PRES   REMARKS
SCRANTON       MOSUNNY   85  60  42 SW9       29.67F
MOUNT POCONO   MOSUNNY   79  64  60 VRB7      29.75S
ALLENTOWN      MOSUNNY   83  65  54 SW6       29.68S
QUAKERTOWN*    PTCLDY    84  68  58 CALM      29.69F
READING        PTSUNNY   85  67  54 S7        29.68R
LANCASTER      PTSUNNY   83  69  62 S7        29.67F
COATESVILLE    CLEAR     79  73  83 S5        29.71F
POTTSTOWN      MOSUNNY   84  70  62 S9        29.69F
BLUE BELL      SUNNY     84  72  65 S7        29.68S
DOYLESTOWN     SUNNY     84  65  52 W5        29.67F
WILLOW GROVE   NOT AVBL
NORTH PHILA    MOSUNNY   85  69  58 SW10      29.69F
PHILADELPHIA   PTSUNNY   85  72  65 SW14      29.68F
$$


USA.gov is the U.S. government's official web portal to all federal, state and local government web resources and services.